When you browse on this site, cookies collect data to enhance your experience and personalize the content and advertising you see.
Visit our Privacy Policy to learn more. By continuing to use the site, you agree to this use of cookies and data.

Hourly Weather Thun

Today, 5 July, Sunday

Time Temperature Precipitation Wind Pressure Humidity
00:00 +15°C° 0 mm 1 mps 707 mmHg 87%
01:00 +15°C° 0 mm 1 mps 707 mmHg 87%
02:00 +15°C° 0 mm 1 mps 707 mmHg 87%
03:00 +14°C° 0 mm 1 mps 707 mmHg 87%
04:00 +14°C° 0 mm 1 mps 706 mmHg 87%
05:00 +16°C° 0 mm 1 mps 707 mmHg 82%
06:00 +18°C° 0 mm 1 mps 707 mmHg 76%
07:00 +18°C° 0 mm 0 mps 707 mmHg 71%
08:00 +22°C° 0 mm 1 mps 707 mmHg 66%
09:00 +23°C° 0 mm 1 mps 707 mmHg 61%
10:00 +25°C° 0 mm 1 mps 707 mmHg 57%
11:00 +26°C° 0 mm 2 mps 707 mmHg 56%
12:00 +27°C° 0 mm 2 mps 707 mmHg 56%
13:00 +27°C° 0 mm 2 mps 707 mmHg 56%
14:00 +27°C° 0 mm 2 mps 707 mmHg 60%
15:00 +27°C° 0 mm 2 mps 706 mmHg 63%
16:00 +27°C° 0 mm 2 mps 706 mmHg 66%
17:00 +26°C° 0.1 mm 2 mps 706 mmHg 73%
18:00 +25°C° 0.1 mm 1 mps 706 mmHg 79%
19:00 +24°C° 0.1 mm 1 mps 706 mmHg 85%
20:00 +22°C° 0 mm 1 mps 706 mmHg 88%
21:00 +21°C° 0 mm 1 mps 706 mmHg 92%
22:00 +17°C° 0 mm 0 mps 706 mmHg 95%
23:00 +17°C° 0 mm 0 mps 705 mmHg 95%

Tomorrow, 6 July, Monday

Time Temperature Precipitation Wind Pressure Humidity
00:00 +18°C° 0 mm 1 mps 705 mmHg 95%
01:00 +18°C° 0 mm 1 mps 705 mmHg 95%
02:00 +18°C° 0 mm 1 mps 705 mmHg 95%
03:00 +16°C° 0 mm 1 mps 704 mmHg 95%
04:00 +16°C° 0 mm 1 mps 704 mmHg 95%
05:00 +18°C° 0 mm 1 mps 704 mmHg 93%
06:00 +19°C° 0 mm 1 mps 704 mmHg 92%
07:00 +20°C° 0 mm 1 mps 704 mmHg 90%
08:00 +21°C° 0.1 mm 1 mps 704 mmHg 83%
09:00 +21°C° 0.1 mm 2 mps 705 mmHg 77%
10:00 +23°C° 0.1 mm 2 mps 705 mmHg 71%
11:00 +23°C° 0.2 mm 2 mps 704 mmHg 73%
12:00 +22°C° 0.2 mm 3 mps 704 mmHg 76%
13:00 +21°C° 0.2 mm 3 mps 704 mmHg 78%
14:00 +20°C° 0.3 mm 3 mps 704 mmHg 81%
15:00 +19°C° 0.3 mm 2 mps 704 mmHg 84%
16:00 +18°C° 0.3 mm 2 mps 703 mmHg 87%
17:00 +17°C° 0.2 mm 2 mps 704 mmHg 86%
18:00 +17°C° 0.2 mm 2 mps 704 mmHg 86%
19:00 +16°C° 0.2 mm 2 mps 704 mmHg 86%
20:00 +15°C° 0 mm 2 mps 705 mmHg 88%
21:00 +14°C° 0 mm 1 mps 705 mmHg 91%
22:00 +12°C° 0 mm 1 mps 706 mmHg 94%
23:00 +12°C° 0 mm 1 mps 705 mmHg 94%

Day after tomorrow, 7 July, Tuesday

Time Temperature Precipitation Wind Pressure Humidity
00:00 +11°C° 0 mm 1 mps 705 mmHg 95%
01:00 +11°C° 0 mm 1 mps 705 mmHg 96%
02:00 +10°C° 0 mm 1 mps 705 mmHg 95%
03:00 +10°C° 0 mm 1 mps 705 mmHg 95%
04:00 +10°C° 0 mm 1 mps 705 mmHg 95%
05:00 +10°C° 0 mm 1 mps 705 mmHg 91%
06:00 +11°C° 0 mm 1 mps 705 mmHg 87%
07:00 +12°C° 0 mm 2 mps 706 mmHg 82%
08:00 +14°C° 0 mm 2 mps 706 mmHg 72%
09:00 +16°C° 0 mm 2 mps 706 mmHg 62%
10:00 +18°C° 0 mm 3 mps 706 mmHg 51%
11:00 +19°C° 0 mm 3 mps 706 mmHg 49%
12:00 +21°C° 0 mm 3 mps 705 mmHg 47%
13:00 +22°C° 0 mm 3 mps 705 mmHg 45%
14:00 +22°C° 0 mm 3 mps 705 mmHg 45%
15:00 +22°C° 0 mm 3 mps 705 mmHg 46%
16:00 +22°C° 0 mm 3 mps 705 mmHg 47%
17:00 +21°C° 0 mm 2 mps 705 mmHg 55%
18:00 +20°C° 0 mm 2 mps 705 mmHg 62%
19:00 +20°C° 0 mm 1 mps 705 mmHg 70%
20:00 +18°C° 0 mm 1 mps 705 mmHg 75%
21:00 +15°C° 0 mm 1 mps 705 mmHg 80%
22:00 +13°C° 0 mm 1 mps 705 mmHg 85%
23:00 +13°C° 0 mm 1 mps 705 mmHg 82%

8 July, Wednesday

Time Temperature Precipitation Wind Pressure Humidity
00:00 +12°C° 0 mm 1 mps 705 mmHg 79%
01:00 +12°C° 0 mm 1 mps 705 mmHg 76%
02:00 +12°C° 0 mm 1 mps 705 mmHg 74%
03:00 +12°C° 0 mm 1 mps 704 mmHg 72%
04:00 +12°C° 0 mm 1 mps 704 mmHg 70%
05:00 +14°C° 0 mm 1 mps 705 mmHg 67%
06:00 +14°C° 0 mm 0 mps 705 mmHg 65%
07:00 +16°C° 0 mm 0 mps 705 mmHg 62%
08:00 +20°C° 0 mm 1 mps 706 mmHg 56%
09:00 +22°C° 0 mm 1 mps 706 mmHg 51%
10:00 +24°C° 0 mm 1 mps 706 mmHg 45%
11:00 +25°C° 0 mm 2 mps 706 mmHg 43%
12:00 +26°C° 0 mm 2 mps 706 mmHg 40%
13:00 +27°C° 0 mm 2 mps 706 mmHg 38%
14:00 +27°C° 0 mm 2 mps 706 mmHg 39%
15:00 +26°C° 0 mm 2 mps 706 mmHg 41%
16:00 +26°C° 0 mm 2 mps 706 mmHg 43%
17:00 +25°C° 0 mm 1 mps 706 mmHg 52%
18:00 +24°C° 0 mm 1 mps 706 mmHg 60%
19:00 +22°C° 0 mm 1 mps 706 mmHg 69%
20:00 +20°C° 0 mm 1 mps 706 mmHg 74%
21:00 +18°C° 0 mm 1 mps 706 mmHg 80%
22:00 +15°C° 0 mm 1 mps 706 mmHg 85%
23:00 +15°C° 0 mm 1 mps 706 mmHg 84%

9 July, Thursday

Time Temperature Precipitation Wind Pressure Humidity
00:00 +14°C° 0 mm 1 mps 706 mmHg 82%
01:00 +14°C° 0 mm 1 mps 705 mmHg 81%
02:00 +14°C° 0 mm 1 mps 705 mmHg 79%
03:00 +14°C° 0 mm 1 mps 705 mmHg 77%
04:00 +14°C° 0 mm 1 mps 705 mmHg 75%
05:00 +15°C° 0 mm 1 mps 705 mmHg 72%
06:00 +16°C° 0 mm 0 mps 706 mmHg 68%
07:00 +18°C° 0 mm 0 mps 706 mmHg 65%
08:00 +20°C° 0 mm 0 mps 706 mmHg 61%
09:00 +23°C° 0 mm 1 mps 706 mmHg 56%
10:00 +25°C° 0 mm 1 mps 706 mmHg 52%
11:00 +26°C° 0 mm 1 mps 706 mmHg 50%
12:00 +27°C° 0 mm 1 mps 706 mmHg 47%
13:00 +28°C° 0 mm 2 mps 706 mmHg 45%
14:00 +28°C° 0 mm 2 mps 706 mmHg 46%
15:00 +28°C° 0 mm 2 mps 706 mmHg 47%
16:00 +28°C° 0 mm 2 mps 705 mmHg 48%
17:00 +27°C° 0 mm 1 mps 705 mmHg 57%
18:00 +25°C° 0 mm 1 mps 705 mmHg 66%
19:00 +24°C° 0 mm 1 mps 705 mmHg 74%
20:00 +22°C° 0 mm 1 mps 705 mmHg 79%
21:00 +20°C° 0 mm 1 mps 705 mmHg 84%
22:00 +18°C° 0 mm 1 mps 705 mmHg 89%
23:00 +18°C° 0 mm 1 mps 705 mmHg 88%

10 July, Friday

Time Temperature Precipitation Wind Pressure Humidity
00:00 +18°C° 0 mm 1 mps 704 mmHg 87%
01:00 +18°C° 0 mm 1 mps 704 mmHg 87%
02:00 +16°C° 0 mm 1 mps 704 mmHg 86%
03:00 +16°C° 0 mm 1 mps 704 mmHg 85%
04:00 +16°C° 0 mm 1 mps 703 mmHg 85%
05:00 +18°C° 0 mm 1 mps 704 mmHg 81%
06:00 +20°C° 0 mm 1 mps 704 mmHg 78%
07:00 +19°C° 0 mm 0 mps 704 mmHg 74%
08:00 +23°C° 0 mm 1 mps 704 mmHg 67%
09:00 +24°C° 0 mm 1 mps 704 mmHg 60%
10:00 +26°C° 0 mm 2 mps 705 mmHg 53%
11:00 +27°C° 0 mm 2 mps 704 mmHg 52%
12:00 +27°C° 0 mm 2 mps 704 mmHg 50%
13:00 +28°C° 0 mm 3 mps 704 mmHg 48%
14:00 +28°C° 0.1 mm 3 mps 704 mmHg 51%
15:00 +27°C° 0.1 mm 3 mps 704 mmHg 54%
16:00 +27°C° 0.1 mm 3 mps 704 mmHg 58%
17:00 +26°C° 0.2 mm 2 mps 704 mmHg 66%
18:00 +24°C° 0.2 mm 1 mps 704 mmHg 74%
19:00 +23°C° 0.2 mm 1 mps 704 mmHg 82%
20:00 +21°C° 0 mm 1 mps 704 mmHg 86%
21:00 +20°C° 0 mm 1 mps 704 mmHg 90%
22:00 +18°C° 0 mm 1 mps 704 mmHg 93%
23:00 +18°C° 0 mm 1 mps 704 mmHg 93%
Show more